Location: Newark
(11.2914°S, 14.4718°E)
Time: 20:11:20
(UTC+00:00)

Tiros 1 despin weight - Pass Details

Date: 19 September 2019
Orbit: 593 x 643 km, 48.2° (Epoch: 21 October)

Event Time Altitude Azimuth Distance (km) Brightness Sun altitude
Rises 08:28:23 0° 233° (SW) 2,947 ? 51.1°
Reaches altitude 10° 08:30:52 10° 241° (WSW) 2,031 ? 51.7°
Maximum altitude 08:35:11 37° 308° (NW) 989 ? 52.7°
Drops below altitude 10° 08:39:26 10° 16° (NNE) 1,997 ? 53.7°
Sets 08:41:52 0° 24° (NNE) 2,892 ? 54.3°
